Regional Weather Roundup
Issued by NWS Cleveland, OH

Home | Current Version | Previous Version | Text Only | Print | Product List | Glossary Off
Versions: 1 2 3 4 5 6 7 8 9 10 11 12 13 14 15 16 17 18 19 20 21 22 23 24 25 26 27 28 29 30 31 32 33 34 35 36 37 38 39 40 41 42 43 44 45 46 47 48 49 50

000
ASUS41 KCLE 180902
RWRCLE
OHIO REGIONAL WEATHER ROUNDUP
NATIONAL WEATHER SERVICE CLEVELAND, OH
500 AM EDT FRI AUG 18 2017

NOTE: "FAIR" INDICATES FEW OR NO CLOUDS BELOW 12,000 FEET WITH NO
SIGNIFICANT WEATHER AND/OR OBSTRUCTIONS TO VISIBILITY.

OHZ001>008-015>018-024>027-034-035-043-044-181000-
   NORTHWEST OHIO

CITY           SKY/WX    TMP DP  RH WIND       PRES   REMARKS
DEFIANCE       CLEAR     68  65  90 SW3       29.77S
FINDLAY        CLEAR     72  66  81 SW10      29.78S
TOLEDO EXPRESS CLEAR     70  68  93 SW12      29.75S
TOLEDO EXEC    CLEAR     71  68  90 SW10      29.76R
LIMA           CLEAR     69  68  96 SW7       29.81R
$$

OHZ009>014-019>023-028>033-038-089-181000-
   NORTHEAST OHIO

CITY           SKY/WX    TMP DP  RH WIND       PRES   REMARKS
CLE-HOPKINS    PTCLDY    74  70  87 S8        29.79S
CLE-LAKEFRONT  CLEAR     74  69  85 S9        29.76S
CUY CO. ARPT   NOT AVBL
LORAIN-ELYRIA  CLEAR     71  65  81 SW7       29.78S
ASHTABULA      PTCLDY    71  71 100 S7        29.80S
AKRON-CANTON   CLOUDY    73  69  87 SW7       29.82S
WOOSTER        CLOUDY    72  71  97 SW6       29.82S
MANSFIELD      CLEAR     72  71  97 SW7       29.82S
YOUNGSTOWN     CLOUDY    72  70  93 S7        29.82S
$$

OHZ042-051>053-060>062-070>072-077>081-181000-
  SOUTHWEST OHIO

CITY           SKY/WX    TMP DP  RH WIND       PRES   REMARKS
CINC-COVINGTON MOCLDY    74  74 100 SW3       29.85S
CINC-LUNKEN    MOCLDY    74  74 100 SW5       29.84S
HAMILTON       PTCLDY    74  73  97 CALM      29.85R
DAYTON         CLEAR     71  70  96 SW8       29.85R
WRIGHT-PAT AFB MOCLDY    73  73 100 SW9       29.83S
DAYTON GENERAL PTCLDY    74  71  91 SW7       29.84R
WILMINGTON     CLOUDY    73  73 100 SW7       29.85R FOG
$$

OHZ036-037-039>041-045>050-054>059-063>069-073>076-082>088-181000-
  CENTRAL AND SOUTHEAST OHIO

CITY           SKY/WX    TMP DP  RH WIND       PRES   REMARKS
COLUMBUS       CLOUDY    74  74 100 SW6       29.82S
OSU AIRPORT    CLOUDY    73  73 100 SW8       29.82S
BOLTON FIELD   MOCLDY    72  72  99 W6        29.84R FOG
RICKENBACK AFB MOCLDY    72  72 100 SW6       29.83R FOG
NEWARK         CLOUDY    74  72  93 SW6       29.83R
MARION         CLEAR     71  69  93 SW7       29.81S FOG
LANCASTER      CLOUDY    74  73  97 SW8       29.84S
ZANESVILLE     CLOUDY    73  71  93 SW5       29.84R
NEW PHILLY     NOT AVBL
$$



USA.gov is the U.S. government's official web portal to all federal, state and local government web resources and services.